Meteo Giornale » Osservazioni meteo Italia » Brescia-Montichiari

ore: 19:50 - Osservazioni Meteo Brescia-Montichiari
Lat. 45° 24' N Lon. 10° 18' E Alt. 104 metri s.l.m.

poco_nuvoloso Europe/Rome

9 °C

Poco Nuvoloso

Temp. 24 Ore

6 °C

12 °C

Est/Sud-Est

9.3 Km/h

Dew point 2 °C

Umidità 61 %

Visibilità  10 Km

Il sole sorge alle ore 06:31

Il sole tramonta alle ore 20:06

Data e Ora Cielo e Fenomeni T °C DP °C Um. % Pres. hPa Vis. km Vento km/h
Oggi h: 19:50 poco_nuvoloso Poco Nuvoloso 9 2 61 1020 10 E/SE 9.3
Oggi h: 19:20 molto_nuvoloso Molto Nuvoloso 10 2 57 1020 10 N/NE 7.4
Oggi h: 18:50 sereno Sereno 10 3 61 1020 10 N 5.5
Oggi h: 18:20 poco_nuvoloso Poco Nuvoloso 10 4 66 1020 10 NE 7.4
Oggi h: 17:50 nuvoloso Nuvoloso 9 4 70 1021 10 N 5.5
Oggi h: 17:20 coperto_pioggia Pioggia Debole 9 4 70 1021 10 N 9.3
Oggi h: 16:50 coperto_pioggia Pioggia 8 4 75 1021 6 E 22.2
Oggi h: 16:20 coperto_pioggia Pioggia Debole 11 3 57 1021 10 E/SE 20.3
Oggi h: 15:50 molto_nuvoloso Molto Nuvoloso 12 1 46 1021 10 E/SE 16.7
Oggi h: 15:20 molto_nuvoloso Molto Nuvoloso 12 1 46 1021 10 E/SE 18.5
Oggi h: 14:50 molto_nuvoloso Molto Nuvoloso 12 1 46 1022 10 E/SE 20.3
Oggi h: 14:20 molto_nuvoloso Molto Nuvoloso 11 0 46 1022 10 E 22.2
Oggi h: 13:50 molto_nuvoloso Molto Nuvoloso 11 3 57 1022 10 E 22.2
Oggi h: 13:20 molto_nuvoloso Molto Nuvoloso 10 2 57 1022 10 NE 20.3
Oggi h: 12:50 molto_nuvoloso Molto Nuvoloso 10 2 57 1022 10 E/NE 24
Oggi h: 12:20 coperto_pioggia Pioggia Debole 7 3 75 1023 8 E/NE 31.5
Oggi h: 11:50 coperto_pioggia Pioviggine Leggera 8 2 65 1023 10 E 25.9
Oggi h: 10:50 molto_nuvoloso Molto Nuvoloso 10 1 53 1022 10 NE 20.3
Oggi h: 10:20 molto_nuvoloso Molto Nuvoloso 10 1 53 1022 10 NE 20.3
Oggi h: 09:50 molto_nuvoloso Molto Nuvoloso 10 1 53 1022 10 NE 22.2
Oggi h: 09:20 molto_nuvoloso Molto Nuvoloso 10 1 53 1022 10 N/NE 18.5
Oggi h: 08:50 molto_nuvoloso Molto Nuvoloso 9 2 61 1022 10 N/NE 18.5
Oggi h: 08:20 molto_nuvoloso Molto Nuvoloso 8 3 70 1022 10 N/NE 18.5
Oggi h: 07:20 molto_nuvoloso Molto Nuvoloso 6 3 81 1022 10 N/NE 11.1
Oggi h: 06:50 molto_nuvoloso Molto Nuvoloso 6 1 70 1022 10 N/NE 11.1
Oggi h: 06:20 coperto Coperto 6 1 70 1021 10 NE 9.3
Oggi h: 05:50 coperto Coperto 6 1 70 1021 10 NE 9.3
Oggi h: 05:20 molto_nuvoloso Molto Nuvoloso 6 1 70 1021 10 NE 7.4
Oggi h: 04:50 molto_nuvoloso Molto Nuvoloso 6 1 70 1021 10 NE 11.1
Oggi h: 04:20 molto_nuvoloso Molto Nuvoloso 7 1 65 1021 10 N/NE 13
Oggi h: 03:50 molto_nuvoloso Molto Nuvoloso 6 1 70 1021 10 NE 11.1
Oggi h: 03:20 molto_nuvoloso Molto Nuvoloso 6 1 70 1021 10 NE 11.1
Oggi h: 02:50 molto_nuvoloso Molto Nuvoloso 6 1 70 1021 10 NE 11.1
Oggi h: 01:50 nuvoloso Nuvoloso 6 2 75 1022 10 NE 11.1
Oggi h: 01:20 molto_nuvoloso Molto Nuvoloso 7 2 70 1022 10 NE 9.3
Oggi h: 00:50 nuvoloso Nuvoloso 7 2 70 1022 10 NE 9.3
Ieri h: 23:50 molto_nuvoloso Molto Nuvoloso 8 3 70 1022 10 N/NE 11.1
Ieri h: 23:20 molto_nuvoloso Molto Nuvoloso 8 3 70 1022 10 N/NE 11.1
Ieri h: 22:50 molto_nuvoloso Molto Nuvoloso 8 3 70 1022 10 N/NE 11.1
Ieri h: 22:20 molto_nuvoloso Molto Nuvoloso 8 3 70 1021 10 E 11.1
Ieri h: 21:50 sereno Sereno 8 3 70 1021 10 E 11.1
Ieri h: 21:20 sereno Sereno 9 3 66 1021 10 E 9.3
Ieri h: 20:50 sereno Sereno 9 2 61 1021 10 E/SE 9.3